Change the Weather History Date:

Sunday, June 30, 2013

  Actual Average Record
Temperature  
Mean Temperature 97 °F 80 °F  
Max Temperature 115 °F 95 °F 115 °F (2013)
Min Temperature 78 °F 65 °F 45 °F (1970)
Degree Days  
Heating Degree Days 0    
Month to date heating degree days 0  
Since 1 June heating degree days 0  
Since 1 July heating degree days 2717  
Cooling Degree Days 32    
Month to date cooling degree days 467  
Year to date cooling degree days 725  
Since 1 June cooling degree days 467  
Growing Degree Days 48 (Base 50)    
Moisture  
Dew Point 44 °F    
Average Humidity 20    
Maximum Humidity 33    
Minimum Humidity 6    
Precipitation  
Precipitation 0.00 in 0.00 in 0.00 in (2015)
Month to date precipitation 0.00 0.05  
Year to date precipitation 1.10 4.91  
Since 1 July precipitation 1.26 7.38  
Snow  
Snow 0.00 in - 0.00 in ()
Month to date snowfall 0.0  
Since 1 June snowfall 0.0  
Since 1 July snowfall 0.0  
Snow Depth 0.00 in    
Sea Level Pressure  
Sea Level Pressure 29.76 in    
Wind  
Wind Speed 10 mph (West)    
Max Wind Speed 24 mph    
Max Gust Speed 30 mph    
Visibility 10 miles    
Events      
T = Trace of Precipitation, MM = Missing Value Source: NWS Daily Summary

Daily Weather History Graph

Daily Weather History Graph

Search for Another Location

Airport or City:

Trip Planner

Search our weather history database for the weather conditions in past years. The results will help you decide how hot, cold, wet, or windy it might be!

Date:

Astronomy

Jun. 30, 2013 Rise Set
Actual Time 5:43 AM PDT 8:10 PM PDT
Civil Twilight 5:13 AM PDT 8:39 PM PDT
Nautical Twilight 4:37 AM PDT 9:15 PM PDT
Astronomical Twilight 3:57 AM PDT 9:55 PM PDT
Moon 12:32 AM PDT (6/30) 1:39 PM PDT (6/30)
Length of Visible Light 15h 26m
Length of Day
14h 27m
Last Quarter, 44% of the Moon is Illuminated
Jun 30
Last Quarter
Jul 8
New
Jul 15
First Quarter
Jul 22
Full
Jul 29
Last Quarter

Hourly Weather History & Observations

Time (PDT) Temp. Dew Point Humidity Pressure Visibility Wind Dir Wind Speed Gust Speed Precip Events Conditions
12:56 AM 88.0 °F 42.1 °F 20% 29.79 in 10.0 mi West 15.0 mph - N/A   Clear
1:56 AM 87.1 °F 43.0 °F 21% 29.78 in 10.0 mi West 12.7 mph - N/A   Clear
2:56 AM 86.0 °F 44.1 °F 23% 29.77 in 10.0 mi West 12.7 mph - N/A   Clear
3:56 AM 84.9 °F 45.0 °F 25% 29.77 in 10.0 mi West 15.0 mph - N/A   Clear
4:56 AM 84.0 °F 46.0 °F 26% 29.78 in 10.0 mi WNW 8.1 mph - N/A   Clear
5:56 AM 82.0 °F 46.0 °F 28% 29.79 in 10.0 mi WNW 8.1 mph - N/A   Clear
6:56 AM 84.9 °F 46.9 °F 27% 29.81 in 10.0 mi Calm Calm - N/A   Clear
7:56 AM 91.0 °F 46.9 °F 22% 29.81 in 10.0 mi WNW 8.1 mph - N/A   Clear
8:56 AM 96.1 °F 46.9 °F 19% 29.81 in 10.0 mi Variable 4.6 mph - N/A   Clear
9:56 AM 99.0 °F 46.9 °F 17% 29.79 in 10.0 mi West 4.6 mph - N/A   Clear
10:56 AM 104.0 °F 44.1 °F 13% 29.78 in 10.0 mi NNW 3.5 mph - N/A   Clear
11:56 AM 107.1 °F 42.1 °F 11% 29.76 in 10.0 mi Variable 4.6 mph - N/A   Clear
12:56 PM 109.9 °F 39.0 °F 9% 29.74 in 10.0 mi Variable 4.6 mph - N/A   Clear
1:56 PM 113.0 °F 30.9 °F 6% 29.72 in 10.0 mi West 11.5 mph 19.6 mph N/A   Clear
2:56 PM 109.9 °F 41.0 °F 10% 29.73 in 10.0 mi SW 20.7 mph 26.5 mph N/A   Clear
3:56 PM 109.0 °F 46.0 °F 12% 29.72 in 10.0 mi SW 21.9 mph 28.8 mph N/A   Clear
4:56 PM 107.1 °F 46.0 °F 13% 29.71 in 10.0 mi WSW 23.0 mph 27.6 mph N/A   Clear
5:56 PM 102.9 °F 44.1 °F 14% 29.71 in 10.0 mi WSW 16.1 mph - N/A   Clear
6:56 PM 102.0 °F 46.9 °F 16% 29.71 in 10.0 mi West 20.7 mph - N/A   Clear
7:56 PM 95.0 °F 45.0 °F 18% 29.73 in 10.0 mi WSW 12.7 mph - N/A   Clear
8:56 PM 91.0 °F 45.0 °F 20% 29.74 in 10.0 mi WSW 8.1 mph - N/A   Clear
9:56 PM 89.1 °F 46.9 °F 23% 29.76 in 10.0 mi SW 5.8 mph - N/A   Clear
10:56 PM 87.1 °F 46.9 °F 25% 29.77 in 10.0 mi WSW 3.5 mph - N/A   Clear
11:56 PM 82.9 °F 50.0 °F 32% 29.78 in 10.0 mi Calm Calm - N/A   Clear